Regional Weather Roundup
Issued by NWS

Home | Current Version | Previous Version | Graphics & Text | Print | Product List | Glossary On
Versions: 1 2 3 4 5 6 7 8 9 10 11 12 13 14 15 16 17 18 19 20 21 22 23 24 25 26 27 28 29 30 31 32 33 34 35 36 37 38 39 40 41 42 43 44 45 46 47 48 49 50
000
ASUS43 KLOT 200706
RWRIL

ILLINOIS REGIONAL WEATHER ROUNDUP
NATIONAL WEATHER SERVICE CHICAGO/ROMEOVILLE IL
100 AM CST SAT DEC 20 2014

NOTE: "FAIR" INDICATES FEW OR NO CLOUDS BELOW 12,000 FEET WITH NO
SIGNIFICANT WEATHER AND/OR OBSTRUCTIONS TO VISIBILITY.

* THESE STATIONS ARE NOT UNDER NWS QUALITY CONTROL. THEY ALSO MAY NOT
  REPORT WEATHER SUCH AS PRECIPITATION OR FOG.

ILZ001-002-007-009-015-016-024-200800-
NORTHWEST ILLINOIS

CITY           SKY/WX    TMP DP  RH WIND       PRES   REMARKS
MOLINE         CLOUDY    29  24  82 E3        30.26F
STERLING*      CLOUDY    27  23  86 SE3       30.27S
SAVANNA*       CLOUDY    28  25  88 CALM      30.27S
$$

ILZ003-004-008-010-011-017-018-200800-
NORTH CENTRAL ILLINOIS

CITY           SKY/WX    TMP DP  RH WIND       PRES   REMARKS
ROCKFORD       CLOUDY    24  21  88 CALM      30.29S
FREEPORT*      CLOUDY    26  24  90 CALM      30.28S
ROCHELLE*      CLOUDY    25  23  93 CALM      30.27S FOG
DE KALB*       CLOUDY    23  21  93 CALM      30.26S FOG
PERU*          CLOUDY    29  25  84 SW5       30.28S WCI  24
$$

ILZ005-006-012>014-019>023-200800-
NORTHEAST ILLINOIS

CITY           SKY/WX    TMP DP  RH WIND       PRES   REMARKS
CHICAGO-OHARE  CLOUDY    29  23  78 CALM      30.26S
CHICAGO-MIDWAY CLOUDY    32  25  75 SW6       30.27S WCI  26
AURORA         CLOUDY    25  21  85 CALM      30.27S FOG
LANSING*       CLOUDY    30  26  83 CALM      30.28R
JOLIET*        CLOUDY    29  25  84 CALM      30.28S
WAUKEGAN       CLOUDY    27  21  78 CALM      30.26R
DUPAGE AIRPORT CLOUDY    27  23  85 CALM      30.26S
KANKAKEE*      CLOUDY    29  27  90 CALM      30.28F
WHEELING       CLOUDY    29  22  75 CALM      30.29R
MORRIS*        CLOUDY    26  25  96 CALM      30.27S
ROMEOVILLE*    CLOUDY    30  26  87 CALM      30.27S
NORTHERLY ISL    N/A     32  24  73 S7          N/A  WCI  26
$$

LMZ740>746-200800-
SOUTHERN LAKE MICHIGAN

STATION/POSITION SKY/WX   TEMP    WIND        PRES    VSBY  WAVE
                          AIR SEA DIR/SP/G                  HT/PER
                          (F)     (DEG/KT/KT) (MB)    (MI)  (FT/S)
WAUKEGAN HARBOR            28        CALM       N/A
HARRISON CRIB              32     200/ 11/ 12   N/A
BURNHAM HARBOR             32     170/  6/  8   N/A
CALUMET HARBOR             32     210/  4/  6 1023.9R
$$

ILZ025>027-034>036-040-047-049-050-058-095>099-200800-
WEST-CENTRAL ILLINOIS

CITY           SKY/WX    TMP DP  RH WIND       PRES   REMARKS
QUINCY         CLOUDY    31  27  85 SE6       30.24F WCI  25
GALESBURG*     CLOUDY    29  25  85 CALM      30.25S
MACOMB*        CLOUDY    30  26  86 SE5       30.28S WCI  25
JACKSONVILLE*  CLOUDY    33  28  82 CALM      30.26F
PITTSFIELD*    CLOUDY    32  29  87 E3        30.26F
$$

ILZ028>032-037-038-041>044-048-051>054-059>061-200800-
CENTRAL ILLINOIS

CITY           SKY/WX    TMP DP  RH WIND       PRES   REMARKS
PONTIAC        PTCLDY    22  21  96 CALM      30.29S FOG
BLOOMINGTON    CLOUDY    26  23  88 CALM      30.27S
DECATUR        CLOUDY    30  26  85 CALM      30.28S
PEORIA         MOCLDY    25  20  81 CALM      30.27F HAZE
LACON*         CLOUDY    25  22  89 CALM      30.27F
LINCOLN*       CLOUDY    31  28  86 CALM      30.28F
SPRINGFIELD    CLOUDY    31  25  78 NE3       30.27S
TAYLORVILLE    CLOUDY    32  28  86 CALM      30.27S
$$

ILZ033-039-045-046-055>057-062-063-200800-
EAST-CENTRAL ILLINOIS

CITY           SKY/WX    TMP DP  RH WIND       PRES   REMARKS
CHAMPAIGN      PTCLDY    24  22  91 E3        30.28S FOG
DANVILLE*      CLOUDY    29  27  93 CALM      30.25F FOG
RANTOUL*       CLOUDY    27  26  94 CALM      30.28S FOG
MATTOON        CLOUDY    29  24  82 CALM      30.27S
PARIS*         CLOUDY    31  28  91 CALM      30.29S
$$

ILZ079-100>102-200800-
SOUTHWEST ILLINOIS

CITY           SKY/WX    TMP DP  RH WIND       PRES   REMARKS
ALTON          CLOUDY    33  29  84 CALM      30.28S
BELLEVILLE     CLOUDY    34  29  83 CALM      30.27S
CAHOKIA*       CLOUDY    35  29  78 SE3       30.27F
SPARTA*        CLOUDY    33  28  79 CALM      30.28S
$$

ILZ064>066-069>071-074>076-080>082-084>086-088>090-092>094-200800-
SOUTH-CENTRAL ILLINOIS

CITY           SKY/WX    TMP DP  RH WIND       PRES   REMARKS
CARBONDALE     CLOUDY    33  28  81 E6        30.27F WCI  28
CAIRO*         CLOUDY    37  32  83 CALM      30.27S
EFFINGHAM*     CLOUDY    31  26  83 CALM      30.29S
MARION         CLOUDY    34  30  86 CALM      30.28S
MT. VERNON     CLOUDY    34  25  69 CALM      30.28S
CENTRALIA*     CLOUDY    32  26  78 CALM      30.27F
SALEM*         CLOUDY    34  27  75 CALM      30.28R
METROPOLIS*    CLOUDY    35  29  80 N3        30.25F
$$

ILZ067-068-072-073-078-083-087-091-200800-
SOUTHEAST ILLINOIS

CITY           SKY/WX    TMP DP  RH WIND       PRES   REMARKS
LAWRENCEVILLE  LGT SNOW  31  27  85 SE6       30.29F FOG     WCI  25
FLORA*         CLOUDY    32  28  84 CALM      30.29R
FAIRFIELD*     CLOUDY    32  29  87 SE3       30.27S
HARRISBURG*    CLOUDY    32  32  99 CALM      30.29S
ROBINSON*      CLOUDY    32  27  81 SE7       30.30S WCI  25
CARMI*         CLOUDY    34  30  86 CALM      30.28F
$$

ABBREVIATIONS USED IN REMARKS
   TC - TEMPERATURE IN CELSIUS
  WCI - WIND CHILL INDEX
   HX - HEAT INDEX
  VSB - VISIBILITY
$$



USA.gov is the U.S. government's official web portal to all federal, state and local government web resources and services.